TIME,DELAY(SENSOR),PRES,T(CTD),SAL,OXYGEN,RAWTEMP,T(OPTODE),TCPHASE,FLUOR,BETA(BETA700),BETA(BETA412),BETA(BETA440),CDOM,C(CSC),ED(ED411.90),ED(ED443.80),ED(ED489.40),ED(ED554.70),LU(LU412.20),LU(LU443.80),LU(LU489.40),LU(LU555.00),COMP,TILTX,TILTX(TILTY),CHECK
1357488116,5808,494.9400024414062500,17.2898998260498050,36.4197998046875000,224.2093963623047000,178.6125030517578000,17.2931804656982420,31.5864295959472660,50,99,97,79,67,12328,2146957165,2147514294,2147271104,2147464146,2147088777,2146954624,2147658267,2147126811,1756,-2,8,22042
1357488229,5806,484.4500122070312500,17.3896007537841800,36.4393997192382800,225.7926025390625000,175.6161041259765600,17.3835697174072270,31.4650306701660160,51,98,95,78,68,12328,2146959332,2147511350,2147270692,2147462683,2147085632,2146955794,2147660662,2147126720,973,-1,8,41501
1357488350,5809,472.8599853515625000,17.5359001159667970,36.4684982299804700,228.0236968994140600,170.6746978759765600,17.5326499938964840,31.2847690582275400,50,98,95,80,67,12332,2146958820,2147516059,2147268937,2147462034,2147086153,2146959241,2147656758,2147127725,3542,-2,8,44273
1357488460,5804,462.2600097656250000,17.6620006561279300,36.4920005798339840,230.1437072753906200,166.4411926269531200,17.6604003906250000,31.1217899322509770,51,98,96,79,67,12333,2146956589,2147517348,2147274157,2147459776,2147079049,2146958838,2147658642,2147129819,2793,-2,9,22096
1357488572,5803,451.4200134277344000,17.7252998352050780,36.5042991638183600,230.9304962158203000,164.3583068847656200,17.7232704162597660,31.0547599792480470,50,100,95,79,67,12327,2146960064,2147516096,2147270445,2147459904,2147081024,2146961609,2147654893,2147126976,2024,-2,9,55887
1357488693,5806,439.6600036621094000,17.7730007171630860,36.5119018554687500,231.6024932861328000,162.9024047851562500,17.7672195434570300,31.0018901824951170,51,99,95,80,66,12330,2146958153,2147515401,2147270756,2147458861,2147085494,2146958208,2147655286,2147123328,1237,-2,9,49487
1357488803,5807,428.9200134277344000,17.8470993041992200,36.5251007080078100,232.3594970703125000,160.4712066650390600,17.8406105041503900,30.9321308135986330,50,97,95,80,67,12329,2146962459,2147513984,2147270052,2147456128,2147082212,2146957138,2147652361,2147127158,647,-2,9,30093
1357488915,5804,417.9599914550781000,17.8969001770019530,36.5341987609863300,233.0473022460937500,158.7539062500000000,17.8924598693847660,30.8754005432128900,51,97,96,79,68,12328,2146953682,2147514816,2147268269,2147456530,2147082587,2146958070,2147655296,2147128182,3505,-2,9,64977
1357489025,5804,407.1799926757812500,17.9515991210937500,36.5433006286621100,233.3889007568359400,156.9432067871093800,17.9471302032470700,30.8344001770019530,50,101,96,80,66,12331,2146958454,2147512950,2147268690,2147457627,2147085513,2146963017,2147656091,2147130395,3004,-2,8,23869
1357489135,5804,396.3900146484375000,17.9860992431640620,36.5474014282226560,233.4636993408203000,155.7617950439453000,17.9828090667724600,30.8150196075439450,50,98,96,79,67,12324,2146960100,2147515474,2147267812,2147453778,2147088091,2146960960,2147651026,2147128676,2594,-2,9,63527
1357489247,5806,385.4800109863281000,18.0510005950927730,36.5559997558593750,232.9241027832031200,153.6096954345703000,18.0478000640869140,30.8125190734863280,51,100,95,81,67,12327,2146957796,2147515849,2147266688,2147453824,2147076626,2146959094,2147652324,2147129609,2285,-1,9,41567
1357489368,5808,374.1199951171875000,18.1236000061035160,36.5652008056640600,232.0977935791015600,151.1186981201172000,18.1230392456054700,30.8194408416748050,51,99,96,80,67,12323,2146957677,2147516653,2147266121,2147456155,2147082962,2146961280,2147651053,2147126939,1837,-2,9,21683
1357489492,5803,362.9800109863281000,18.1798000335693360,36.5709991455078100,231.4048004150390600,149.3370971679687500,18.1768703460693360,30.8292808532714840,51,99,97,80,67,12328,2146955995,2147515702,2147267602,2147454144,2147082230,2146960987,2147655378,2147129526,1090,-1,8,51695
1357489613,5806,352.5799865722656000,18.2513008117675780,36.5779991149902340,230.5585937500000000,146.9822998046875000,18.2480106353759770,30.8396492004394530,50,98,96,80,67,12329,2146956589,2147512384,2147267666,2147455286,2147076672,2146962843,2147652269,2147129728,175,-2,9,11418
1357489745,5807,341.5400085449219000,18.3141994476318360,36.5835990905761700,229.5485992431640600,145.0001068115234400,18.3079109191894530,30.8627700805664060,50,98,94,79,67,12320,2146958912,2147513380,2147268260,2147453787,2147084900,2146960374,2147653632,2147131008,3061,-1,9,65468
1357489879,5806,330.7099914550781000,18.3609008789062500,36.5876007080078100,228.6056976318359400,143.2922973632812500,18.3595294952392580,30.8866691589355470,50,98,96,79,67,12329,2146955245,2147515986,2147266139,2147451446,2147082825,2146957641,2147651373,2147128457,2144,-1,9,27657
1357490022,5803,319.3200073242187500,18.4463996887207030,36.5932006835937500,226.7980041503906200,140.6053924560547000,18.4407405853271500,30.9408607482910160,50,99,96,82,68,12322,2146960566,2147515821,2147267282,2147455040,2147085101,2146958427,2147647652,2147128073,1957,-2,9,61307
1357490167,5806,306.6000061035156000,18.5538997650146500,36.5966987609863300,224.8327941894531200,137.0346984863281200,18.5487003326416000,30.9918193817138670,50,99,96,80,68,12325,2146958948,2147515821,2147264329,2147452690,2147082578,2146962157,2147651702,2147127826,1367,-2,8,47799
1357490266,5805,296.4599914550781000,18.6284008026123050,36.5988998413085940,224.7324066162109400,134.3831024169922000,18.6288890838623050,30.9617691040039060,52,98,94,81,67,12324,2146957403,2147514596,2147263762,2147450057,2147086692,2146957952,2147651099,2147131154,1001,-1,9,8274
1357490376,5807,285.6499938964844000,18.7607994079589840,36.6069984436035160,222.9710998535156200,129.7962036132812500,18.7676391601562500,30.9895591735839840,50,98,95,79,67,12319,2146959213,2147511963,2147264758,2147449536,2147086582,2146962313,2147651821,2147126912,514,-1,8,43470
1357490488,5806,274.6499938964844000,18.8750000000000000,36.6055984497070300,223.5908966064453000,125.9007034301757800,18.8855209350585940,30.9059600830078120,51,98,95,80,67,12331,2146954139,2147515565,2147265206,2147450221,2147083574,2146958793,2147651812,2147129499,3039,-2,8,58699
1357490598,5804,264.2699890136719000,18.9811000823974600,36.6063003540039060,223.3217926025390600,122.7707977294921900,18.9802608489990230,30.8778896331787100,51,99,97,80,67,12321,2146956946,2147516470,2147264329,2147450569,2147088713,2146964928,2147654363,2147130706,1950,-2,8,29553
1357490719,5807,253.1000061035156200,19.0583992004394530,36.5904006958007800,228.6710052490234400,120.2057037353515600,19.0579299926757800,30.5760498046875000,51,98,96,79,66,12319,2146961298,2147513344,2147264356,2147449737,2147083574,2146964388,2147653540,2147127104,889,-2,9,38589
1357490842,5806,241.6199951171875000,19.0995998382568360,36.5928993225097660,231.6965942382812500,118.8415985107421900,19.0992393493652340,30.4101390838623050,50,99,94,80,68,12323,2146956864,2147515300,2147263049,2147451062,2147085613,2146968585,2147658934,2147129718,3290,-1,8,31372
1357490963,5806,230.3200073242187500,19.1583995819091800,36.5857009887695300,235.4886932373047000,116.9938964843750000,19.1551990509033200,30.2034797668457030,51,97,95,80,67,12324,2146957129,2147515446,2147265106,2147451090,2147084114,2146970697,2147660507,2147132224,3184,-1,9,57404
1357491087,5805,218.9499969482422000,19.2616996765136720,36.5731010437011700,239.4608001708984400,113.5641021728515600,19.2591094970703120,29.9714107513427730,51,98,96,81,66,12319,2146960649,2147509851,2147265974,2147449901,2147088566,2146970861,2147666633,2147129801,3346,-1,9,8812
1357491208,5804,208.2899932861328000,19.3348999023437500,36.5744018554687500,241.9886932373047000,111.2204971313476600,19.3301296234130860,29.8238105773925780,50,97,95,80,67,12319,2146959707,2147513618,2147270134,2147450505,2147088237,2146972900,2147668141,2147131995,2818,-2,8,3000
1357491329,5806,197.7599945068359400,19.4407005310058600,36.5825996398925800,241.2480010986328000,107.7021026611328100,19.4367809295654300,29.8122501373291000,51,100,97,81,67,12314,2146957686,2147513929,2147268315,2147451739,2147087670,2146977252,2147692754,2147133129,2796,-1,9,62605
1357491404,5808,191.7100067138672000,19.5205001831054700,36.5933990478515600,239.4694976806640600,104.8562011718750000,19.5230693817138670,29.8576698303222660,51,100,97,81,68,12314,2146957138,2147513462,2147267638,2147447378,2147089526,2146981522,2147707702,2147132562,2626,-1,9,23993
1357491459,5805,187.5800018310547000,19.6070995330810550,36.6041984558105500,237.9667053222656200,102.3416976928711000,19.5993309020996100,29.8950004577636720,52,102,97,82,66,12318,2146957586,2147513782,2147266651,2147445878,2147087030,2146992109,2147734793,2147132132,2846,-1,8,24262
1357491514,5802,183.5899963378906200,19.6571998596191400,36.6110000610351560,237.0175018310547000,100.3767013549804700,19.6589508056640620,29.9139308929443360,50,103,97,81,67,12313,2146961188,2147516242,2147264923,2147445851,2147092361,2147000137,2147752393,2147131675,2981,-2,9,31328
1357491569,5808,179.6499938964843800,19.7014999389648440,36.6153984069824200,236.2462005615234400,99.0991363525390600,19.6977100372314450,29.9335002899169920,52,103,97,83,68,12306,2146955264,2147514358,2147269833,2147444443,2147090112,2147006244,2147742336,2147134774,3450,-1,9,36088
1357491624,5804,175.6499938964843800,19.8118991851806640,36.6250991821289060,235.2239990234375000,95.4049987792968800,19.8098297119140620,29.9338798522949220,52,104,98,83,67,12308,2146957056,2147515163,2147267456,2147445622,2147089289,2147004406,2147753572,2147133942,3340,-2,9,11635
1357491679,5808,171.8000030517578000,19.9242000579834000,36.6325988769531250,234.9416046142578000,91.5826187133789000,19.9258899688720700,29.8973407745361330,52,103,97,83,67,12300,2146957376,2147515757,2147267483,2147446473,2147089536,2147005193,2147746678,2147135606,3375,-2,9,38406
1357491757,5804,167.0700073242187500,19.9881992340087900,36.6347999572753900,235.0345001220703000,89.6764526367187500,19.9837894439697270,29.8682403564453120,53,110,97,82,68,12302,2146958016,2147515273,2147266203,2147448045,2147092278,2146991186,2147714340,2147137892,3050,-2,9,712
1357491834,5805,163.2899932861328000,20.0795001983642580,36.6450996398925800,234.6535034179687500,86.6279678344726600,20.0764102935791000,29.8468608856201170,54,105,98,82,67,12306,2146957193,2147513691,2147260233,2147443355,2147090944,2146992438,2147705362,2147135643,2990,-2,9,3478
1357491911,5806,159.6699981689453000,20.1828994750976560,36.6521987915039060,233.7875061035156200,83.5058212280273400,20.1713008880615230,29.8473491668701170,54,107,97,83,67,12300,2146957714,2147513435,2147262729,2147444278,2147093558,2146998308,2147704731,2147133622,2946,-2,9,14216
1357491999,5805,155.8899993896484400,20.2352008819580080,36.6540985107421900,233.6860961914062500,81.6761627197265600,20.2269306182861330,29.8286209106445300,53,106,97,82,69,12302,2146956187,2147516342,2147263259,2147441993,2147092525,2147002633,2147725540,2147132132,2273,-2,9,26589
1357492100,5805,151.6900024414062500,20.4999008178710940,36.6708984375000000,232.4281005859375000,73.2825775146484400,20.4822692871093750,29.7800807952880860,54,105,97,83,68,12296,2146958829,2147515337,2147266980,2147442432,2147099483,2147044205,2147817161,2147140800,1639,-2,9,17838
1357492210,5803,147.8600006103515600,20.5879993438720700,36.6745986938476560,233.3399963378906200,70.1177520751953100,20.5786209106445300,29.6957607269287100,56,106,98,83,67,12293,2146958464,2147513764,2147268891,2147441179,2147099766,2147049691,2147832932,2147141275,1456,-2,9,16500
1357492320,5806,143.6999969482422000,20.6322002410888670,36.6764984130859400,233.6459045410156200,68.6242370605468800,20.6240997314453120,29.6619300842285160,57,109,99,84,67,12291,2146959890,2147513124,2147268388,2147439222,2147102171,2147053293,2147830893,2147140178,663,-2,9,19819
1357492418,5808,139.1799926757812500,20.9020996093750000,36.6833992004394500,232.9575958251953000,60.0994682312011700,20.8838806152343750,29.5847892761230470,57,114,100,84,67,12279,2146958500,2147516443,2147270326,2147440749,2147105307,2147068653,2147846747,2147144091,475,-1,8,63947
1357492495,5806,135.6499938964843800,21.0422992706298830,36.6904983520507800,232.9022064208984400,54.7229003906250000,21.0478801727294920,29.5185203552246100,56,121,99,84,67,12279,2146957522,2147518637,2147270134,2147438966,2147111771,2147080484,2147871405,2147140809,19,-1,8,1173
1357492594,5802,131.8399963378906200,21.1347007751464840,36.6768989562988300,234.8905944824218800,52.2447395324707000,21.1235198974609380,29.3929100036621100,58,116,101,85,66,12265,2146957394,2147517074,2147271990,2147441728,2147117476,2147095085,2147896612,2147144091,2357,-1,9,36032
1357492696,5809,127.9599990844726600,21.1627006530761720,36.6716003417968750,236.4490051269531200,51.1171798706054700,21.1579399108886720,29.3056907653808600,59,116,100,86,67,12277,2146960813,2147519003,2147271625,2147440950,2147123474,2147131492,2147962605,2147152292,2687,-2,9,47405
1357492806,5805,123.9100036621093800,21.2574996948242200,36.6456985473632800,238.0382995605468800,48.2158317565918000,21.2465400695800780,29.1950492858886720,58,120,99,84,65,12269,2146960109,2147517293,2147273179,2147435072,2147136594,2147177856,2148057874,2147156928,2985,-2,9,36278
1357492949,5806,120.3600006103515600,21.2954006195068360,36.6344985961914060,239.7704925537109400,46.8284416198730500,21.2889194488525400,29.0980205535888670,60,117,101,87,65,12263,2146961554,2147521627,2147278473,2147436827,2147156982,2147235126,2148163264,2147162176,3001,-2,9,11746
1357493082,5805,115.7699966430664000,21.3780994415283200,36.6072998046875000,241.9064025878906200,44.2490692138671900,21.3677291870117200,28.9681892395019530,60,121,102,86,65,12250,2146957056,2147521691,2147284644,2147433481,2147181403,2147304603,2148274834,2147169810,1950,-2,9,50918
1357493192,5803,111.8099975585937500,21.4946994781494140,36.5601005554199200,243.7848052978515600,40.8125114440918000,21.4727897644042970,28.8403701782226560,61,125,102,88,65,12247,2146959826,2147527131,2147284443,2147436370,2147199396,2147330285,2148303762,2147172388,1604,-3,9,9535
1357493337,5805,108.0800018310546900,21.6145992279052730,36.5107002258300800,247.8520050048828000,36.2795715332031250,21.6114406585693360,28.6030902862548830,63,133,104,88,63,12223,2146962121,2147528868,2147285732,2147436964,2147238052,2147418221,2148435172,2147179620,1259,-2,9,8129
1357493447,5804,103.7600021362304700,21.6240997314453120,36.4790000915527340,252.9915008544922000,36.0433311462402340,21.6186695098876950,28.3778190612792970,76,146,109,91,62,12173,2146963008,2147531968,2147294226,2147433938,2147280704,2147496694,2148558217,2147190546,1034,-2,9,41929
1357493546,5806,99.8600006103515600,21.6266994476318360,36.4767990112304700,254.9013977050781200,35.8931617736816400,21.6232700347900400,28.2946205139160160,78,142,108,90,63,12173,2146966016,2147529645,2147300992,2147435794,2147310838,2147534555,2148614765,2147198528,845,-1,9,44429
1357493601,5807,97.6600036621093800,21.6284999847412100,36.4761009216308600,255.3865051269531200,35.8127098083496100,21.6257305145263670,28.2730293273925780,77,146,110,92,62,12171,2146967350,2147531318,2147299300,2147437449,2147338998,2147575780,2148675785,2147208630,628,-2,9,24426
1357493680,5804,93.7900009155273400,21.6256999969482420,36.4737014770507800,255.8334960937500000,35.8900108337402340,21.6233692169189450,28.2550792694091800,77,145,106,92,62,12164,2146968374,2147539200,2147308809,2147435401,2147399049,2147702308,2148862034,2147223268,280,-2,9,16671
1357493735,5804,90.4199981689453100,21.6277008056640620,36.4733009338378900,256.2926940917969000,35.8207702636718750,21.6254806518554700,28.2349090576171880,77,150,109,91,61,12164,2146969746,2147541659,2147316260,2147434066,2147472667,2147833682,2149056192,2147241691,3454,-1,9,6771
1357493790,5805,87.0899963378906200,21.6312007904052730,36.4733009338378900,256.2827148437500000,35.7213401794433600,21.6285305023193360,28.2340393066406250,77,143,109,94,63,12158,2146977179,2147546048,2147326966,2147435958,2147557833,2147973833,2149282724,2147265014,3125,-2,9,18858
1357493845,5808,83.8199996948242200,21.6338996887207030,36.4733009338378900,256.5846862792969000,35.6531906127929700,21.6306095123291000,28.2204704284667970,77,149,108,92,62,12148,2146979282,2147552036,2147337444,2147437531,2147643090,2148120731,2149487725,2147287597,2749,-2,9,26114
1357493900,5804,80.6800003051757800,21.6467990875244140,36.4732017517089840,256.5291137695312500,35.2506484985351560,21.6429290771484380,28.2178497314453120,77,147,108,91,62,12108,2146985380,2147556388,2147345993,2147436745,2147735094,2148273344,2149686043,2147314157,2499,-2,9,27896
1357493955,5805,77.6600036621093800,21.6501998901367200,36.4728012084960940,256.6997070312500000,35.1302795410156250,21.6466197967529300,28.2092704772949220,76,147,109,94,62,12145,2146987693,2147563218,2147356068,2147436224,2147839908,2148442176,2149912850,2147340973,2387,-2,9,16997
1357494012,5805,74.6299972534179700,21.6553001403808600,36.4726982116699200,256.7439880371094000,34.9082107543945300,21.6534099578857420,28.2045001983642580,77,150,109,92,62,12141,2146991040,2147571437,2147371986,2147440256,2147979236,2148669229,2150217453,2147372214,2287,-2,9,844
1357494067,5804,71.7500000000000000,21.6646003723144530,36.4706993103027340,256.6354064941406000,34.6954803466796900,21.6599197387695300,28.2066001892089840,76,149,109,91,63,12141,2147001691,2147580379,2147385837,2147439387,2148133805,2148914742,2150529901,2147414930,2291,-1,9,43267
1357494122,5804,69.0100021362304700,21.6653995513916000,36.4714012145996100,256.8104858398437500,34.6309700012207000,21.6618995666503900,28.1982402801513670,76,158,107,92,63,12139,2147005906,2147590070,2147397869,2147442331,2148298980,2149171419,2150853979,2147455606,2546,-2,9,31932
1357494177,5806,66.2600021362304700,21.6651992797851560,36.4715003967285160,256.8540039062500000,34.6091308593750000,21.6625709533691400,28.1962699890136720,77,148,108,92,62,12129,2147015853,2147603922,2147418011,2147445851,2148504868,2149489042,2151265234,2147514953,2613,-2,9,42213
1357494232,5805,63.4799995422363300,21.6653003692626950,36.4710998535156250,256.9354858398437500,34.6222114562988300,21.6621704101562500,28.1930198669433600,77,171,108,93,61,12135,2147025225,2147615835,2147436416,2147447707,2148747062,2149856347,2151719122,2147580553,2968,-1,9,24964
1357494287,5805,60.6800003051757800,21.6655006408691400,36.4704017639160160,256.8511962890625000,34.6074600219726560,21.6626205444335940,28.1962604522705080,78,168,109,91,62,12133,2147037833,2147635181,2147463506,2147452781,2149061394,2150328237,2152300278,2147667556,3112,-1,9,23128
1357494344,5805,57.5499992370605500,21.6674995422363280,36.4700012207031250,256.9180908203125000,34.5474700927734400,21.6644496917724600,28.1927394866943360,77,151,109,92,62,12134,2147054912,2147658688,2147502921,2147457152,2149514541,2151002587,2153128301,2147797659,3246,-2,9,48555
1357494399,5805,54.5499992370605500,21.6669998168945300,36.4698982238769500,257.0187072753906000,34.5507087707519500,21.6643505096435550,28.1885395050048830,79,154,109,93,62,12115,2147081545,2147692553,2147548717,2147464950,2150082468,2151849536,2154167506,2147968118,3296,-2,9,45444
1357494541,5805,47.5699996948242200,21.6667003631591800,36.4696998596191400,257.0950927734375000,34.5505218505859400,21.6643600463867200,28.1853599548339840,77,144,109,93,61,11975,2147163748,2147801234,2147706102,2147491812,2152138596,2154806409,2157653449,2148612306,92,-2,9,30293
1357494575,5809,45.6599998474121100,21.6665992736816400,36.4700012207031250,257.2185058593750000,34.5354690551757800,21.6648197174072270,28.1800498962402340,77,154,108,91,62,11971,2147197037,2147840457,2147761526,2147504594,2152933376,2155909330,2158938377,2148863826,3527,-2,9,49826
1357494608,5805,43.8199996948242200,21.6695995330810550,36.4688987731933600,257.2168884277344000,34.4132194519043000,21.6685600280761720,28.1787490844726560,77,146,110,92,62,11956,2147230418,2147885833,2147827611,2147515977,2153865600,2157196324,2160429485,2149169554,3421,-2,9,12090
1357494655,5804,41.2000007629394500,21.6732006072998050,36.4688987731933600,257.3067016601562500,34.1902694702148440,21.6753902435302730,28.1719303131103500,78,144,110,93,63,11969,2147294784,2147963108,2147934390,2147538441,2155393755,2159256731,2162737764,2149687323,3336,-2,9,20382
1357494688,5804,39.3400001525878900,21.6765995025634770,36.4688987731933600,257.3138122558594000,34.1349983215332000,21.6770801544189450,28.1710090637207030,77,150,109,94,62,11964,2147339638,2148011812,2147991707,2147555044,2156476434,2160666706,2164220955,2150061659,3285,-2,9,20390
1357494721,5804,37.4799995422363300,21.6802997589111330,36.4682006835937500,257.2998046875000000,34.0771713256835940,21.6788501739501950,28.1708698272705080,78,146,108,94,63,11968,2147393426,2148074925,2148069677,2147573485,2157788946,2162354450,2165997979,2150517403,3096,-2,9,15183
1357494754,5805,35.5800018310546900,21.6877994537353500,36.4678001403808600,257.2814941406250000,33.8466415405273440,21.6859092712402340,28.1688308715820300,79,146,110,93,61,11971,2147451227,2148143323,2148153901,2147593362,2159324708,2164290651,2168015579,2151070500,2971,-2,9,54445
1357494787,5803,33.7000007629394500,21.6870994567871100,36.4682998657226560,257.3829040527344000,33.7545890808105500,21.6887207031250000,28.1632804870605470,76,147,109,92,61,11965,2147523648,2148224420,2148251849,2147624374,2161062272,2166445293,2170214208,2151703835,2987,-1,9,9267
1357494832,5805,31.1599998474121100,21.6930007934570300,36.4670982360839840,257.4769897460937500,33.6183815002441400,21.6928901672363280,28.1577301025390620,76,153,109,93,63,11959,2147624073,2148326262,2148380050,2147671433,2163567131,2169445622,2173193590,2152643474,2978,-2,9,52526
1357494865,5804,29.2800006866455080,21.6945991516113280,36.4670982360839840,257.4578857421875000,33.5457992553710940,21.6951198577880860,28.1575794219970700,76,143,111,94,63,11953,2147692928,2148402733,2148468114,2147708315,2165420434,2171564754,2175176036,2153345051,3045,-1,9,55417
1357494898,5806,27.3899993896484380,21.6968002319335940,36.4668998718261700,257.5075073242187500,33.4157791137695300,21.6990890502929700,28.1539402008056640,77,146,109,93,63,11962,2147767177,2148478756,2148546121,2147744777,2167233398,2173558464,2176948397,2154055360,3071,-2,9,11804
1357494931,5807,25.4899997711181640,21.7012004852294920,36.4668998718261700,257.3829040527344000,33.2958908081054700,21.7027606964111330,28.1575794219970700,76,155,108,93,62,11948,2147844608,2148553408,2148625280,2147781110,2169147090,2175602075,2178708891,2154828982,3091,-1,9,46341
